📊 Raw Sensor Data
Showing records 50651 to 50675 of 85,136 total
| ID | Distance (ft) | Battery V | Battery A | Int Temp (°F) | Int Humid (%) | Ext Temp (°F) | Solar V | RSSI | SNR | Time Stamp |
|---|---|---|---|---|---|---|---|---|---|---|
| 34498 | 15.7 | 4.00 | 0 | 72 | 35 | 67 | 5.10 | -77 | 7 | 03/09/2025 12:15 PM |
| 34497 | 15.7 | 4.00 | 5 | 71 | 35 | 64 | 5.10 | -77 | 8 | 03/09/2025 12:00 PM |
| 34496 | -- | 4.00 | 5 | 69 | 35 | 66 | 5.10 | -76 | 9 | 03/09/2025 11:45 AM |
| 34495 | 15.7 | 4.08 | 5 | 67 | 35 | 65 | 5.10 | -77 | 8 | 03/09/2025 11:30 AM |
| 34494 | 15.7 | 4.00 | 0 | 66 | 34 | 66 | 5.10 | -76 | 8 | 03/09/2025 11:15 AM |
| 34493 | 15.7 | 4.00 | 5 | 64 | 34 | 64 | 5.10 | -77 | 7 | 03/09/2025 11:00 AM |
| 34492 | 15.7 | 4.09 | 5 | 62 | 34 | 64 | 5.10 | -77 | 8 | 03/09/2025 10:45 AM |
| 34491 | 15.7 | 4.00 | 5 | 59 | 34 | 61 | 5.10 | -76 | 7 | 03/09/2025 10:30 AM |
| 34490 | 15.7 | 4.00 | 5 | 55 | 34 | 62 | 5.10 | -76 | 8 | 03/09/2025 10:00 AM |
| 34489 | 15.6 | 4.00 | 0 | 52 | 34 | 60 | 5.10 | -76 | 8 | 03/09/2025 09:45 AM |
| 34488 | 15.6 | 4.11 | 0 | 49 | 35 | 57 | 5.10 | -76 | 8 | 03/09/2025 09:30 AM |
| 34487 | 15.6 | 4.00 | 5 | 47 | 35 | 57 | 5.10 | -76 | 8 | 03/09/2025 09:15 AM |
| 34486 | 15.5 | 4.00 | 5 | 44 | 35 | 54 | 5.10 | -76 | 8 | 03/09/2025 09:00 AM |
| 34485 | 15.4 | 4.07 | 5 | 42 | 36 | 52 | 5.10 | -76 | 8 | 03/09/2025 08:45 AM |
| 34484 | 15.4 | 4.03 | 0 | 39 | 36 | 47 | 5.00 | -75 | 8 | 03/09/2025 08:30 AM |
| 34483 | 15.4 | 4.04 | 40 | 36 | 37 | 42 | 4.50 | -76 | 9 | 03/09/2025 08:00 AM |
| 34482 | 15.4 | 4.03 | 0 | 36 | 38 | 39 | 4.50 | -75 | 8 | 03/09/2025 07:45 AM |
| 34481 | 15.4 | 3.91 | -38 | 35 | 38 | 38 | 4.50 | -75 | 8 | 03/09/2025 07:30 AM |
| 34480 | 15.4 | 3.92 | -5 | 35 | 38 | 37 | 1.80 | -75 | 8 | 03/09/2025 07:15 AM |
| 34479 | 15.4 | 3.98 | -5 | 36 | 38 | 37 | 0.00 | -74 | 8 | 03/09/2025 07:00 AM |
| 34478 | 15.4 | 3.92 | -5 | 36 | 38 | 38 | 0.00 | -75 | 8 | 03/09/2025 06:45 AM |
| 34477 | 15.4 | 3.98 | -5 | 36 | 38 | 38 | 0.00 | -74 | 8 | 03/09/2025 06:30 AM |
| 34476 | 15.4 | 3.92 | -5 | 36 | 38 | 38 | 0.00 | -76 | 8 | 03/09/2025 06:15 AM |
| 34475 | 15.4 | 3.92 | -5 | 36 | 38 | 38 | 0.00 | -75 | 8 | 03/09/2025 06:00 AM |
| 34474 | 15.3 | 3.98 | -5 | 36 | 39 | 38 | 0.00 | -75 | 8 | 03/09/2025 05:45 AM |